Regional Weather Roundup
Issued by NWS

Home | Current Version | Previous Version | Graphics & Text | Print | Product List | Glossary On
Versions: 1 2 3 4 5 6 7 8 9 10 11 12 13 14 15 16 17 18 19 20 21 22 23 24 25 26 27 28 29 30 31 32 33 34 35 36 37 38 39 40 41 42 43 44 45 46 47 48 49 50
000
ASUS45 KTFX 202204
RWRMT
MONTANA HOURLY WEATHER ROUNDUP
NATIONAL WEATHER SERVICE GREAT FALLS MT
404 PM MDT SAT SEP 20 2014

NOTE: "FAIR" INDICATES FEW OR NO CLOUDS BELOW 12000 FEET WITH NO
SIGNIFICANT WEATHER AND/OR OBSTRUCTIONS TO VISIBILITY.

* THESE STATIONS ARE NOT UNDER NWS QUALITY CONTROL. THEY DO NOT
   REPORT WEATHER SUCH AS PRECIPITATION OR FOG.

MTZ001>007-043-202300-
WEST OF THE DIVIDE
CITY           SKY/WX    TMP DP  RH WIND       PRES   REMARKS
KALISPELL      SUNNY     77  45  32 S5        30.17F
MISSOULA       SUNNY     79  41  26 SE3       30.16F
BUTTE          SUNNY     73  30  20 W5        30.26F
MULLAN PASS    SUNNY     66  37  34 VRB3      30.30F
* ESSEX        N/A       75  41  30 NW6        N/A
* LINCOLN      N/A       78  36  22 SW3G10     N/A
* LOOKOUT PASS N/A       72  39  30 NW3        N/A
* POLSON       N/A       78  46  32 NW3        N/A
* RONAN APT    SUNNY     75  45  34 NW7        N/A
* SEELEY LAKE  N/A       77  39  26 S5G10      N/A
* THOMP F APT  SUNNY     75  41  30 SW4G13     N/A
$$

MTZ008-052>055-202300-
SOUTHWEST MONTANA
CITY           SKY/WX    TMP DP  RH WIND       PRES   REMARKS
BOZEMAN        SUNNY     73  30  20 VRB6      30.23F
DILLON         SUNNY     73  39  29 CALM      30.23F
W YELLOWSTONE  SUNNY     72  28  19 CALM      30.31F
* THREE FORKS  SUNNY     75  48  39 N/A        N/A
* BOULDER HILL N/A       72  37  28 S3G9       N/A
* MONIDA PASS  N/A       71  37  29 E4G11      N/A
* RAYNOLDS PAS N/A       74  69  84 NW4        N/A
* WHITEHALL    N/A       77  30  18 SE5        N/A
* WISE RIVER   N/A       75  30  19 SE9G14     N/A
$$

MTZ009>010-012-014-046-048-049-054-202300-
EAST SLOPES AND CENTRAL MONTANA
CITY           SKY/WX    TMP DP  RH WIND       PRES   REMARKS
CUT BANK       SUNNY     72  43  35 VRB3      30.22F
GREAT FALLS    SUNNY     73  43  34 NE8       30.22S
HELENA         SUNNY     77  41  28 E8        30.19F
MALMSTROM AFB  SUNNY     72  41  33 E7G17     30.23F
* CONRAD       SUNNY     73  46  38 N/A        N/A
* EAST GLACIER N/A       69  41  36 SE6G16     N/A
* MONARCH      N/A       66  39  37 NE7        N/A
* PENDROY      N/A       72  48  43 S3         N/A
* ROGERS PASS  N/A       71  42  35 S3G9       N/A
* SAINT MARY   N/A       74  37  26 SW6G12     N/A
* SWEET GRASS  N/A       69  37  31 E3G8       N/A
$$

MTZ011-013-016-021-035-040-045-047-050-051-202300-
NORTH CENTRAL MONTANA
CITY           SKY/WX    TMP DP  RH WIND       PRES   REMARKS
HAVRE          SUNNY     73  36  26 NW9       30.21F
LEWISTOWN      SUNNY     72  45  38 N7        30.26F
* CHESTER      N/A       72  37  28 SE2        N/A
* DENTON       N/A       71  45  39 N6G13      N/A
* GEYSER       N/A       70  45  41 E8         N/A
* JUDITH GAP   N/A       68  45  44 VRB7G12    N/A
* LOMA         N/A       72  39  30 NE6G11     N/A
$$

MTZ017>020-022>027-061-062-202300-
NORTHEAST MONTANA
CITY           SKY/WX    TMP DP  RH WIND       PRES   REMARKS
GLASGOW        SUNNY     73  34  24 NW21      30.15S
JORDAN         SUNNY     73  36  26 NW14G28   30.19F
SIDNEY         PTCLDY    72  34  25 NW21G29   30.11S
WOLF POINT     SUNNY     73  37  27 NW16G30   30.13R
* BEAVER HILL  N/A       69  36  30 NW27G37    N/A
* CIRCLE       N/A       72  42  34 W15        N/A
* LINDSAY DVD  N/A       70  35  28 NW20G32    N/A
$$

MTZ028>042-056>058-202300-
SOUTHCENTRAL AND SOUTHEAST MONTANA
CITY           SKY/WX    TMP DP  RH WIND       PRES   REMARKS
BAKER          SUNNY     73  36  26 NW23G35   30.16S
BILLINGS       SUNNY     75  39  27 NE10      30.23F
LIVINGSTON     SUNNY     79  34  20 VRB3      30.22F
MILES CITY     SUNNY     75  37  25 N22       30.19S
* LAUREL APT   SUNNY     75  39  27 E8         N/A
* ROUNDUP APT  SUNNY     73  39  29 N/A        N/A
* ALZADA       N/A       72  40  31 NW13       N/A
* HYSHAM       N/A       71  40  33 NW4G9      N/A
* LAME DEER    N/A       67  43  42 VRB9G14    N/A
* REED POINT   N/A       76  40  27 E6         N/A
* ROSCOE HILL  N/A       71  34  26 E1G8       N/A
$$

REGIONAL REPORTS...DAKOTAS
CITY           SKY/WX    TMP DP  RH WIND       PRES   REMARKS
WILLISTON      PTCLDY    72  36  27 NW22G37   30.07S
DICKINSON      PTCLDY    72  37  28 NW21G31   30.07R
BEACH          N/A       68  34  28 NW26G35   30.14R
CROSBY         SUNNY     68  36  31 NW28G38   30.04R
TIOGA          SUNNY     68  34  28 NW33G40   30.07R
WATFORD CITY   SUNNY     70  32  25 NW26G35   30.05R
BISMARCK       PTSUNNY   73  37  27 NW23G38   30.00S
GRAND FORKS    PTSUNNY   66  52  61 NW14G26   29.80S
FARGO          PTCLDY    66  50  56 NW25G35   29.83S
BUFFALO SD     PTCLDY    73  36  26 NW23G35   30.09F
RAPID CITY     SUNNY     75  39  27 N26G37    30.16R
$$

REGIONAL REPORTS...WYOMING/IDAHO/WASHINGTON
CITY           SKY/WX    TMP DP  RH WIND       PRES   REMARKS
GILLETTE       SUNNY     73  37  27 N10       30.24F
SHERIDAN       SUNNY     73  39  29 NW7       30.25F
CODY           SUNNY    N/A N/A N/A N/A        N/A
YELLOWSTONE LA SUNNY     64  32  30 CALM      30.41F
SALMON         SUNNY     77  39  26 CALM      30.12F
MULLAN PASS    SUNNY     66  37  34 VRB3      30.30S
SAND POINT     SUNNY     75  50  42 E6        30.14F
SPOKANE        SUNNY     81  46  29 E13       30.12F

$$



USA.gov is the U.S. government's official web portal to all federal, state and local government web resources and services.